TimeCDT,TemperatureF,Dew PointF,Humidity,Sea Level PressureIn,VisibilityMPH,Wind Direction,Wind SpeedMPH,Gust SpeedMPH,PrecipitationIn,Events,Conditions,WindDirDegrees,DateUTC
12:15 AM,68.0,53.6,60,30.20,10.0,SE,5.8,-,N/A,,Overcast,130,2012-10-14 05:15:00
12:35 AM,68.0,53.6,60,30.20,10.0,SE,6.9,-,N/A,,Overcast,130,2012-10-14 05:35:00
12:55 AM,68.0,53.6,60,30.20,10.0,SE,11.5,-,N/A,,Overcast,140,2012-10-14 05:55:00
1:15 AM,66.2,53.6,64,30.19,10.0,ESE,9.2,-,N/A,,Overcast,120,2012-10-14 06:15:00
1:35 AM,66.2,53.6,64,30.19,10.0,SE,6.9,-,N/A,,Overcast,130,2012-10-14 06:35:00
1:55 AM,66.2,55.4,68,30.18,10.0,ESE,8.1,-,N/A,,Overcast,120,2012-10-14 06:55:00
2:35 AM,64.4,55.4,73,30.18,10.0,ESE,4.6,-,N/A,,Clear,110,2012-10-14 07:35:00
2:55 AM,64.4,55.4,73,30.18,10.0,Calm,Calm,-,N/A,,Clear,0,2012-10-14 07:55:00
3:15 AM,62.6,55.4,77,30.18,10.0,Calm,Calm,-,N/A,,Mostly Cloudy,0,2012-10-14 08:15:00
3:35 AM,64.4,55.4,73,30.17,10.0,Calm,Calm,-,N/A,,Overcast,0,2012-10-14 08:35:00
3:55 AM,64.4,57.2,77,30.16,10.0,ESE,5.8,-,N/A,,Overcast,110,2012-10-14 08:55:00
4:15 AM,64.4,57.2,77,30.17,10.0,SE,5.8,-,N/A,,Overcast,140,2012-10-14 09:15:00
4:35 AM,64.4,57.2,77,30.16,10.0,SE,6.9,-,N/A,,Mostly Cloudy,140,2012-10-14 09:35:00
4:55 AM,64.4,57.2,77,30.16,10.0,SE,5.8,-,N/A,,Scattered Clouds,140,2012-10-14 09:55:00
5:15 AM,62.6,57.2,82,30.17,10.0,SSE,3.5,-,N/A,,Mostly Cloudy,150,2012-10-14 10:15:00
5:35 AM,62.6,57.2,82,30.17,10.0,SE,8.1,-,N/A,,Overcast,140,2012-10-14 10:35:00
5:55 AM,62.6,57.2,82,30.15,10.0,SE,9.2,-,N/A,,Scattered Clouds,140,2012-10-14 10:55:00
6:15 AM,62.6,57.2,82,30.16,10.0,SE,8.1,-,N/A,,Scattered Clouds,140,2012-10-14 11:15:00
6:35 AM,62.6,57.2,82,30.15,10.0,SE,9.2,-,N/A,,Overcast,140,2012-10-14 11:35:00
6:55 AM,64.4,57.2,77,30.16,10.0,SSE,4.6,-,N/A,,Overcast,150,2012-10-14 11:55:00
7:15 AM,64.4,57.2,77,30.17,10.0,SE,5.8,-,N/A,,Overcast,140,2012-10-14 12:15:00
7:35 AM,64.4,57.2,77,30.18,10.0,SSE,3.5,-,N/A,,Overcast,150,2012-10-14 12:35:00
7:55 AM,64.4,57.2,77,30.20,10.0,SSE,3.5,-,N/A,,Overcast,150,2012-10-14 12:55:00
8:15 AM,64.4,59.0,83,30.20,10.0,Calm,Calm,-,N/A,,Overcast,0,2012-10-14 13:15:00
8:35 AM,64.4,59.0,83,30.21,10.0,Calm,Calm,-,N/A,,Overcast,0,2012-10-14 13:35:00
8:55 AM,64.4,60.8,88,30.22,10.0,West,3.5,-,N/A,,Overcast,280,2012-10-14 13:55:00
9:15 AM,64.4,59.0,83,30.23,10.0,Calm,Calm,-,N/A,,Overcast,0,2012-10-14 14:15:00
9:35 AM,66.2,60.8,83,30.22,10.0,SE,4.6,-,N/A,,Overcast,140,2012-10-14 14:35:00
9:55 AM,66.2,60.8,83,30.23,10.0,Calm,Calm,-,N/A,,Overcast,0,2012-10-14 14:55:00
10:15 AM,66.2,60.8,83,30.22,10.0,South,4.6,-,N/A,,Overcast,170,2012-10-14 15:15:00
10:35 AM,66.2,60.8,83,30.22,10.0,Calm,Calm,-,N/A,,Overcast,0,2012-10-14 15:35:00
10:55 AM,68.0,60.8,78,30.22,10.0,SW,3.5,-,N/A,,Overcast,220,2012-10-14 15:55:00
11:15 AM,69.8,60.8,73,30.21,10.0,South,5.8,-,N/A,,Overcast,190,2012-10-14 16:15:00
11:35 AM,69.8,60.8,73,30.20,10.0,South,4.6,-,N/A,,Overcast,180,2012-10-14 16:35:00
11:55 AM,69.8,60.8,73,30.18,10.0,SSE,10.4,-,N/A,,Overcast,160,2012-10-14 16:55:00
12:15 PM,71.6,62.6,73,30.17,10.0,South,8.1,-,N/A,,Overcast,190,2012-10-14 17:15:00
12:35 PM,71.6,60.8,69,30.15,10.0,South,8.1,-,N/A,,Mostly Cloudy,180,2012-10-14 17:35:00
12:55 PM,73.4,62.6,69,30.13,10.0,South,9.2,-,N/A,,Partly Cloudy,170,2012-10-14 17:55:00
1:15 PM,73.4,62.6,69,30.12,10.0,SSW,3.5,-,N/A,,Clear,210,2012-10-14 18:15:00
1:35 PM,73.4,62.6,69,30.10,10.0,SSW,8.1,-,N/A,,Clear,210,2012-10-14 18:35:00
1:55 PM,75.2,62.6,65,30.09,10.0,South,10.4,-,N/A,,Partly Cloudy,190,2012-10-14 18:55:00
2:15 PM,77.0,62.6,61,30.08,10.0,South,6.9,16.1,N/A,,Partly Cloudy,180,2012-10-14 19:15:00
2:35 PM,77.0,62.6,61,30.07,10.0,South,9.2,-,N/A,,Partly Cloudy,190,2012-10-14 19:35:00
2:55 PM,77.0,62.6,61,30.07,10.0,South,6.9,-,N/A,,Mostly Cloudy,190,2012-10-14 19:55:00
3:15 PM,75.2,62.6,65,30.05,10.0,South,6.9,-,N/A,,Scattered Clouds,180,2012-10-14 20:15:00
3:35 PM,75.2,62.6,65,30.04,10.0,South,8.1,-,N/A,,Scattered Clouds,180,2012-10-14 20:35:00
3:55 PM,75.2,62.6,65,30.03,10.0,SSW,6.9,-,N/A,,Clear,200,2012-10-14 20:55:00
4:15 PM,75.2,62.6,65,30.02,10.0,South,6.9,-,N/A,,Clear,180,2012-10-14 21:15:00
4:35 PM,75.2,62.6,65,30.02,10.0,SSW,6.9,-,N/A,,Clear,200,2012-10-14 21:35:00
4:55 PM,75.2,62.6,65,30.01,10.0,South,8.1,-,N/A,,Clear,190,2012-10-14 21:55:00
5:15 PM,73.4,62.6,69,30.01,10.0,SSW,4.6,-,N/A,,Clear,200,2012-10-14 22:15:00
5:35 PM,73.4,62.6,69,30.00,10.0,Calm,Calm,-,N/A,,Clear,0,2012-10-14 22:35:00
5:55 PM,73.4,62.6,69,30.01,10.0,Calm,Calm,-,N/A,,Clear,0,2012-10-14 22:55:00
6:15 PM,73.4,62.6,69,30.01,10.0,SSW,3.5,-,N/A,,Clear,210,2012-10-14 23:15:00
6:35 PM,71.6,62.6,73,30.00,10.0,SSW,4.6,-,N/A,,Clear,210,2012-10-14 23:35:00
6:55 PM,71.6,62.6,73,30.00,10.0,SSW,4.6,-,N/A,,Clear,200,2012-10-14 23:55:00
7:15 PM,71.6,62.6,73,30.01,10.0,Calm,Calm,-,N/A,,Scattered Clouds,0,2012-10-15 00:15:00
7:35 PM,71.6,62.6,73,30.01,10.0,South,3.5,-,N/A,,Overcast,190,2012-10-15 00:35:00
7:55 PM,71.6,62.6,73,30.02,10.0,SSW,3.5,-,N/A,,Mostly Cloudy,210,2012-10-15 00:55:00
8:15 PM,71.6,62.6,73,30.02,10.0,SSW,3.5,-,N/A,,Mostly Cloudy,210,2012-10-15 01:15:00
8:35 PM,71.6,62.6,73,30.02,10.0,SSW,3.5,-,N/A,,Mostly Cloudy,200,2012-10-15 01:35:00
8:55 PM,71.6,62.6,73,30.01,10.0,South,3.5,-,N/A,,Overcast,190,2012-10-15 01:55:00
9:15 PM,71.6,62.6,73,30.00,10.0,South,3.5,-,N/A,,Mostly Cloudy,180,2012-10-15 02:15:00
9:35 PM,69.8,62.6,78,30.00,10.0,SSW,3.5,-,N/A,,Scattered Clouds,200,2012-10-15 02:35:00
9:55 PM,69.8,62.6,78,30.00,10.0,SSW,4.6,-,N/A,,Partly Cloudy,210,2012-10-15 02:55:00
10:15 PM,69.8,62.6,78,29.98,10.0,Calm,Calm,-,N/A,,Partly Cloudy,0,2012-10-15 03:15:00
10:35 PM,66.2,62.6,88,29.98,10.0,WNW,3.5,-,N/A,,Clear,290,2012-10-15 03:35:00
10:55 PM,66.2,62.6,88,29.99,10.0,SW,4.6,-,N/A,,Partly Cloudy,230,2012-10-15 03:55:00
11:15 PM,68.0,62.6,83,29.97,10.0,SSW,3.5,-,N/A,,Partly Cloudy,210,2012-10-15 04:15:00
11:35 PM,69.8,62.6,78,29.96,10.0,SW,5.8,-,N/A,,Scattered Clouds,220,2012-10-15 04:35:00
11:55 PM,69.8,62.6,78,29.95,10.0,SW,4.6,-,N/A,,Scattered Clouds,230,2012-10-15 04:55:00